Powrót do katalogu

STARLINK-32171

AktywnyŁącznośćVLEO
NORAD 60332·PAYLOAD·🇺🇸 United States

Wystrzelony Aug 2, 2024 z Cape Canaveral Space Force Station

Loading…

Następne Przeloty (najbliższe 24 godziny)

TLE

ŚwieżeSource: CelesTrak SupGP

Epoka: Sep 14, 2026, 21:01 UTC

1 60332C 24136D   26257.87618056  .00038444  00000+0  12365-2 0  2571
2 60332  53.1590 275.6089 0001166  77.2699  95.5157 15.31676387    10

Śledź STARLINK-32171 w czasie rzeczywistym z AllMySat

Download on the App Store